Pineville, WV

8:29 PM EDT on August 17, 2019 (GMT -0400)
Pineville

Weather History for KI16 - May, 2019

Change the Weather History Date:

Tuesday, May 21, 2019

  Actual Average (WUND) Record (WUND)
Temperature  
Mean Temperature 64 °F -  
Max Temperature 76 °F - - (-1)
Min Temperature 52 °F - - (-1)
Degree Days  
Heating Degree Days 1    
Growing Degree Days 14 (Base 50)    
Moisture  
Dew Point 54 °F    
Average Humidity 77    
Maximum Humidity 98    
Minimum Humidity 46    
Precipitation  
Precipitation 0.00 in - - ()
Sea Level Pressure  
Sea Level Pressure 30.10 in    
Wind  
Wind Speed - (North)    
Max Wind Speed -    
Max Gust Speed -    
Visibility 10 miles    
Events      
Averages and records for this station are not official NWS values.
T = Trace of Precipitation, MM = Missing Value Source: NWS Daily Summary

Daily Weather History Graph

Daily Weather History Graph

Search for Another Location

Airport or City:

Astronomy

May. 21, 2019 Rise Set
Actual Time 6:12 AM EDT 8:33 PM EDT
Civil Twilight 5:42 AM EDT 9:03 PM EDT
Nautical Twilight 5:05 AM EDT 9:40 PM EDT
Astronomical Twilight 4:25 AM EDT 10:20 PM EDT
Moon 11:27 PM EDT (5/21) 8:28 AM EDT (5/21)
Length of Visible Light 15h 20m
Length of Day
14h 21m
Waning Gibbous, 91% of the Moon is Illuminated
May 21
Waning Gibbous
May 26
Last Quarter
Jun 3
New
Jun 10
First Quarter
Jun 17
Full

Hourly Weather History & Observations

Time (EDT) Temp. Dew Point Humidity Pressure Visibility Wind Dir Wind Speed Gust Speed Precip Events Conditions
12:15 AM 57.4 °F 54.0 °F 88% 30.08 in 10.0 mi North - - N/A   Clear
12:35 AM 57.4 °F 54.0 °F 88% 30.07 in 10.0 mi North - - N/A   Clear
12:55 AM 56.5 °F 53.6 °F 90% 30.08 in 10.0 mi North - - N/A   Clear
1:15 AM 55.8 °F 53.6 °F 92% 30.09 in 10.0 mi North - - N/A   Clear
1:35 AM 55.4 °F 53.4 °F 93% 30.09 in 10.0 mi North - - N/A   Clear
1:55 AM 55.4 °F 53.6 °F 94% 30.08 in 10.0 mi North - - N/A   Clear
2:15 AM 54.7 °F 53.1 °F 94% 30.08 in 10.0 mi North - - N/A   Clear
2:35 AM 54.3 °F 52.9 °F 95% 30.08 in 10.0 mi North - - N/A   Clear
2:55 AM 54.3 °F 52.9 °F 95% 30.08 in 10.0 mi North - - N/A   Clear
3:15 AM 53.6 °F 52.5 °F 96% 30.07 in 10.0 mi North - - N/A   Clear
3:35 AM 53.6 °F 52.7 °F 97% 30.07 in 10.0 mi North - - N/A   Clear
3:55 AM 52.9 °F 52.0 °F 97% 30.07 in 10.0 mi North - - N/A   Clear
4:15 AM 52.7 °F 52.0 °F 97% 30.07 in 10.0 mi North - - N/A   Clear
4:35 AM 52.7 °F 52.0 °F 97% 30.07 in 10.0 mi North - - N/A   Clear
4:55 AM 52.2 °F 51.6 °F 98% 30.08 in 10.0 mi North - - N/A   Clear
5:15 AM 52.2 °F 51.4 °F 97% 30.09 in 10.0 mi North - - N/A   Clear
5:35 AM 52.2 °F 51.4 °F 97% 30.10 in 10.0 mi North - - N/A   Clear
5:55 AM 52.2 °F 51.4 °F 97% 30.10 in 10.0 mi North - - N/A   Clear
6:15 AM 52.0 °F 51.3 °F 97% 30.09 in 10.0 mi North - - N/A   Clear
6:35 AM 52.0 °F 51.3 °F 97% 30.09 in 10.0 mi North - - N/A   Clear
6:55 AM 52.0 °F 51.3 °F 97% 30.10 in 10.0 mi North - - N/A   Clear
7:15 AM 52.5 °F 51.8 °F 97% 30.11 in 10.0 mi North - - N/A   Clear
7:35 AM 53.1 °F 52.3 °F 97% 30.11 in 10.0 mi North - - N/A   Clear
7:55 AM 54.7 °F 53.8 °F 97% 30.11 in 10.0 mi North - - N/A   Clear
8:15 AM 55.0 °F 52.9 °F 92% 30.12 in 10.0 mi North - - N/A   Clear
8:35 AM 55.6 °F 52.9 °F 91% 30.12 in 10.0 mi North - - N/A   Scattered Clouds
8:55 AM 58.1 °F 53.4 °F 84% 30.13 in 10.0 mi North - - N/A   Scattered Clouds
9:15 AM 59.2 °F 53.8 °F 82% 30.13 in 10.0 mi North - - N/A   Scattered Clouds
9:35 AM 61.2 °F 53.6 °F 76% 30.13 in 10.0 mi North - - N/A   Scattered Clouds
9:55 AM 62.8 °F 53.1 °F 71% 30.14 in 10.0 mi North - - N/A   Clear
10:15 AM 64.2 °F 53.6 °F 68% 30.14 in 10.0 mi North - - N/A   Clear
10:35 AM 65.5 °F 53.4 °F 65% 30.14 in 10.0 mi North - - N/A   Clear
10:55 AM 68.0 °F 54.3 °F 62% 30.14 in 10.0 mi North - - N/A   Clear
11:15 AM 67.6 °F 55.2 °F 64% 30.14 in 10.0 mi North - - N/A   Scattered Clouds
11:35 AM 67.6 °F 53.8 °F 61% 30.14 in 10.0 mi North - - N/A   Mostly Cloudy
11:55 AM 68.5 °F 55.0 °F 62% 30.14 in 10.0 mi North - - N/A   Scattered Clouds
12:15 PM 69.1 °F 52.9 °F 56% 30.14 in 10.0 mi North - - N/A   Scattered Clouds
12:35 PM 69.6 °F 53.4 °F 56% 30.13 in 10.0 mi North - - N/A   Clear
12:55 PM 70.2 °F 53.4 °F 55% 30.12 in 10.0 mi North - - N/A   Clear
1:15 PM 72.1 °F 52.5 °F 50% 30.12 in 10.0 mi North - - N/A   Clear
1:35 PM 72.9 °F 52.7 °F 49% 30.11 in 10.0 mi North - - N/A   Clear
1:55 PM 72.1 °F 52.9 °F 51% 30.11 in 10.0 mi North - - N/A   Clear
2:15 PM 71.6 °F 52.3 °F 51% 30.10 in 10.0 mi North - - N/A   Clear
2:35 PM 72.9 °F 54.5 °F 52% 30.10 in 10.0 mi North - - N/A   Clear
2:55 PM 73.8 °F 54.1 °F 50% 30.10 in 10.0 mi North - - N/A   Clear
3:15 PM 74.1 °F 54.3 °F 50% 30.09 in 10.0 mi North - - N/A   Clear
3:35 PM 76.5 °F 54.9 °F 47% 30.09 in 10.0 mi North - - N/A   Clear
3:55 PM 75.6 °F 53.4 °F 46% 30.09 in 10.0 mi North - - N/A   Clear
4:15 PM 75.2 °F 54.1 °F 48% 30.09 in 10.0 mi North - - N/A   Clear
4:35 PM 75.7 °F 55.4 °F 49% 30.09 in 10.0 mi North - - N/A   Clear
4:55 PM 74.8 °F 55.9 °F 52% 30.09 in 10.0 mi North - - N/A   Clear
5:15 PM 75.6 °F 55.0 °F 49% 30.09 in 10.0 mi North - - N/A   Clear
5:35 PM 72.7 °F 60.1 °F 64% 30.09 in 10.0 mi North - - N/A   Clear
5:55 PM 72.7 °F 60.4 °F 65% 30.09 in 10.0 mi North - - N/A   Clear
6:15 PM 72.1 °F 61.0 °F 68% 30.09 in 10.0 mi North - - N/A   Clear
6:40 PM 75.2 °F 57.2 °F 53% 30.10 in 10.0 mi North - - N/A   Clear
6:55 PM 73.2 °F 59.5 °F 62% 30.09 in 10.0 mi North - - N/A   Clear
7:15 PM 69.1 °F 58.3 °F 68% 30.09 in 10.0 mi North - - N/A   Clear
7:35 PM 67.5 °F 58.5 °F 73% 30.09 in 10.0 mi North - - N/A   Clear
7:55 PM 66.7 °F 59.5 °F 78% 30.10 in 10.0 mi North - - N/A   Clear
8:15 PM 65.7 °F 59.5 °F 81% 30.10 in 10.0 mi North - - N/A   Clear
8:35 PM 64.2 °F 59.0 °F 83% 30.11 in 10.0 mi North - - N/A   Clear
8:55 PM 63.0 °F 58.3 °F 85% 30.11 in 10.0 mi North - - N/A   Clear
9:15 PM 62.2 °F 57.6 °F 85% 30.11 in 10.0 mi North - - N/A   Clear
9:35 PM 61.9 °F 57.2 °F 85% 30.12 in 10.0 mi North - - N/A   Clear
9:55 PM 61.5 °F 56.8 °F 85% 30.12 in 10.0 mi North - - N/A   Clear
10:15 PM 61.2 °F 56.5 °F 85% 30.13 in 10.0 mi North - - N/A   Clear
10:35 PM 61.0 °F 55.9 °F 83% 30.13 in 10.0 mi North - - N/A   Clear
10:55 PM 59.5 °F 55.4 °F 86% 30.14 in 10.0 mi North - - N/A   Clear
11:15 PM 57.7 °F 54.9 °F 90% 30.13 in 10.0 mi North - - N/A   Clear
11:35 PM 57.7 °F 54.7 °F 90% 30.14 in 10.0 mi North - - N/A   Clear
11:55 PM 57.4 °F 54.5 °F 90% 30.14 in 10.0 mi North - - N/A   Clear